| time (UTC) | temp C | wind direction | speed KPH | gust KPH | rain 1hr cm | rain 24hr cm | rain mn cm | humidity % | barometer mb |
| 20260504044541 | 16 | 0 | 0.0 | 4.8 | 0.00 | 0.00 | 0.00 | 71 | 1015.3 |
| 20260504043039 | 16 | 360 | 1.6 | 6.4 | 0.00 | 0.00 | 0.00 | 71 | 1015.0 |
| 20260504041539 | 16 | 0 | 0.0 | 4.8 | 0.00 | 0.00 | 0.00 | 71 | 1014.9 |
| 20260504040045 | 16 | 0 | 0.0 | 4.8 | 0.00 | 0.00 | 0.00 | 71 | 1014.8 |
| 20260504034546 | 16 | 0 | 0.0 | 6.4 | 0.00 | 0.00 | 0.00 | 71 | 1014.7 |
| 20260504033038 | 16 | 293 | 1.6 | 11.3 | 0.00 | 0.00 | 0.00 | 71 | 1014.7 |
| 20260504031539 | 16 | 284 | 0.0 | 6.4 | 0.00 | 0.00 | 0.00 | 71 | 1014.4 |
| 20260504030042 | 16 | 311 | 3.2 | 11.3 | 0.00 | 0.00 | 0.00 | 70 | 1014.2 |
| 20260504024542 | 16 | 310 | 3.2 | 11.3 | 0.00 | 0.00 | 0.00 | 69 | 1014.1 |
| 20260504023042 | 17 | 292 | 1.6 | 11.3 | 0.00 | 0.00 | 0.00 | 68 | 1014.1 |
| 20260504021539 | 17 | 303 | 1.6 | 4.8 | 0.00 | 0.00 | 0.00 | 67 | 1013.9 |
| 20260504020039 | 17 | 289 | 1.6 | 8.0 | 0.00 | 0.00 | 0.00 | 66 | 1013.8 |
| 20260504014551 | 17 | 331 | 4.8 | 11.3 | 0.00 | 0.00 | 0.00 | 64 | 1013.6 |
| 20260504013049 | 18 | 290 | 0.0 | 4.8 | 0.00 | 0.00 | 0.00 | 64 | 1013.4 |
| 20260504011544 | 18 | 251 | 1.6 | 6.4 | 0.00 | 0.00 | 0.00 | 66 | 1013.4 |
| 20260504010041 | 18 | 295 | 1.6 | 6.4 | 0.00 | 0.00 | 0.00 | 66 | 1013.3 |
| 20260504004542 | 18 | 310 | 1.6 | 11.3 | 0.00 | 0.00 | 0.00 | 66 | 1013.3 |
| 20260504003048 | 18 | 298 | 3.2 | 9.7 | 0.00 | 0.00 | 0.00 | 66 | 1013.3 |
| 20260504001537 | 18 | 279 | 3.2 | 12.9 | 0.00 | 0.00 | 0.00 | 65 | 1013.2 |
| 20260504000046 | 18 | 298 | 3.2 | 9.7 | 0.00 | 0.00 | 0.00 | 62 | 1013.0 |
| 20260503234547 | 19 | 355 | 3.2 | 9.7 | 0.00 | 0.00 | 0.00 | 61 | 1013.1 |
| 20260503233040 | 20 | 244 | 3.2 | 11.3 | 0.00 | 0.00 | 0.00 | 60 | 1012.9 |
| 20260503231541 | 19 | 282 | 1.6 | 12.9 | 0.00 | 0.00 | 0.00 | 60 | 1013.1 |
| 20260503230041 | 20 | 294 | 1.6 | 9.7 | 0.00 | 0.00 | 0.00 | 58 | 1013.2 |
| 20260503224544 | 20 | 200 | 1.6 | 6.4 | 0.00 | 0.00 | 0.00 | 57 | 1013.3 |
| 20260503223042 | 20 | 273 | 1.6 | 6.4 | 0.00 | 0.00 | 0.00 | 56 | 1013.5 |
| 20260503221541 | 20 | 256 | 1.6 | 11.3 | 0.00 | 0.00 | 0.00 | 54 | 1013.6 |
| 20260503220048 | 20 | 206 | 3.2 | 16.1 | 0.00 | 0.00 | 0.00 | 54 | 1013.7 |
| 20260503214537 | 20 | 185 | 3.2 | 14.5 | 0.00 | 0.00 | 0.00 | 54 | 1013.8 |
| 20260503213055 | 20 | 182 | 6.4 | 14.5 | 0.00 | 0.00 | 0.00 | 54 | 1013.8 |
| 20260503211543 | 20 | 188 | 9.7 | 19.3 | 0.00 | 0.00 | 0.00 | 54 | 1013.8 |
| 20260503210041 | 21 | 190 | 4.8 | 17.7 | 0.00 | 0.00 | 0.00 | 52 | 1013.9 |
| 20260503204539 | 21 | 156 | 6.4 | 17.7 | 0.00 | 0.00 | 0.00 | 53 | 1013.7 |
| 20260503203051 | 22 | 119 | 4.8 | 12.9 | 0.00 | 0.00 | 0.00 | 54 | 1013.9 |
| 20260503201543 | 21 | 196 | 3.2 | 16.1 | 0.00 | 0.00 | 0.00 | 55 | 1014.0 |
| 20260503200048 | 20 | 126 | 4.8 | 14.5 | 0.00 | 0.00 | 0.00 | 55 | 1014.1 |
| 20260503194542 | 20 | 165 | 4.8 | 12.9 | 0.00 | 0.00 | 0.00 | 57 | 1014.2 |
| 20260503193046 | 20 | 155 | 6.4 | 16.1 | 0.00 | 0.00 | 0.00 | 57 | 1014.3 |
| 20260503191537 | 20 | 166 | 3.2 | 11.3 | 0.00 | 0.00 | 0.00 | 57 | 1014.4 |
| 20260503190037 | 19 | 17 | 1.6 | 9.7 | 0.00 | 0.00 | 0.00 | 59 | 1014.5 |
| 20260503184555 | 18 | 138 | 3.2 | 8.0 | 0.00 | 0.00 | 0.00 | 60 | 1014.7 |
| 20260503183053 | 18 | 0 | 3.2 | 9.7 | 0.00 | 0.00 | 0.00 | 59 | 1014.9 |
| 20260503181554 | 18 | 314 | 0.0 | 8.0 | 0.00 | 0.00 | 0.00 | 62 | 1014.9 |
| 20260503180037 | 18 | 198 | 1.6 | 8.0 | 0.00 | 0.00 | 0.00 | 63 | 1015.0 |
| 20260503174544 | 18 | 233 | 0.0 | 8.0 | 0.00 | 0.00 | 0.00 | 65 | 1015.0 |
| 20260503173045 | 17 | 186 | 3.2 | 6.4 | 0.00 | 0.00 | 0.00 | 66 | 1015.0 |
| 20260503171539 | 17 | 177 | 3.2 | 11.3 | 0.00 | 0.00 | 0.00 | 67 | 1014.6 |
| 20260503081606 | 15 | 173 | 1.6 | 4.8 | 0.00 | 0.00 | 0.00 | 82 | 1013.7 |
| 20260503071543 | 15 | 0 | 0.0 | 3.2 | 0.00 | 0.00 | 0.00 | 83 | 1013.3 |
| 20260503054551 | 15 | 0 | 0.0 | 4.8 | 0.00 | 0.00 | 0.00 | 82 | 1013.0 |
| 20260503053043 | 15 | 0 | 0.0 | 4.8 | 0.00 | 0.00 | 0.00 | 81 | 1013.2 |
| 20260503051541 | 15 | 332 | 0.0 | 3.2 | 0.00 | 0.00 | 0.00 | 81 | 1013.3 |
| 20260503050041 | 15 | 0 | 0.0 | 4.8 | 0.00 | 0.00 | 0.00 | 80 | 1013.2 |